User: anonymous   Login
Location: St. Louis
(38.6270°N, 90.1994°W)
Time: 22:27:07
(UTC-06:00)
Language:

AO-109 - Orbit

View from above orbital plane
View from above orbital plane
View from above satellite
View from above satellite

Ground track
Ground track

The orbit data is extracted from the following two-line orbital elements,

1 47311U 21002C   22024.59145005  .00004129  00000-0  18482-3 0  9992
2 47311  60.6848 182.7293 0026540 163.4400 196.7560 15.22891765 56536
Epoch (UTC): 24 January 2022 14:11:41
Eccentricity: 0.0026540
inclination: 60.6848°
perigee height: 479 km
apogee height: 515 km
right ascension of ascending node: 182.7293°
argument of perigee: 163.4400°
revolutions per day: 15.22891765
mean anomaly at epoch: 196.7560°
orbit number at epoch: 5653

The dashed part of the orbit path shows where the satellite is in the earth's shadow,  

DLR